Weather History for KEAU - August, 2014

Change the Weather History Date:

Sunday, August 10, 2014

  Actual Average Record
Temperature  
Mean Temperature 70 °F 70 °F  
Max Temperature 83 °F 81 °F 98 °F (1947)
Min Temperature 57 °F 59 °F 45 °F (1982)
Degree Days  
Heating Degree Days 0 1  
Month to date heating degree days 0 5  
Since 1 June heating degree days 43 78  
Since 1 July heating degree days 18 16  
Cooling Degree Days 5 6  
Month to date cooling degree days 61 60  
Year to date cooling degree days 368 426  
Since 1 June cooling degree days 333 394  
Growing Degree Days 20 (Base 50)    
Moisture  
Dew Point 56 °F    
Average Humidity 64    
Maximum Humidity 100    
Minimum Humidity 28    
Precipitation  
Precipitation 0.00 in 0.15 in 3.33 in (1959)
Month to date precipitation 1.61 1.50  
Year to date precipitation 27.99 19.15  
Snow  
Snow 0.00 in 0.00 in 0.00 in ()
Month to date snowfall 0.0 0.0  
Since 1 June snowfall 0.0 0.0  
Since 1 July snowfall 0.0 0.0  
Snow Depth 0.00 in    
Sea Level Pressure  
Sea Level Pressure 30.05 in    
Wind  
Wind Speed 3 mph (SSE)    
Max Wind Speed 10 mph    
Max Gust Speed 14 mph    
Visibility 10 miles    
Events      
T = Trace of Precipitation, MM = Missing Value Source: NWS Daily Summary

Daily Weather History Graph

Daily Weather History Graph

Search for Another Location

Airport or City:

Trip Planner

Search our weather history database for the weather conditions in past years. The results will help you decide how hot, cold, wet, or windy it might be!

Date:

Astronomy

Aug. 10, 2014 Rise Set
Actual Time 6:02 AM CDT 8:19 PM CDT
Civil Twilight 5:29 AM CDT 8:52 PM CDT
Nautical Twilight 4:49 AM CDT 9:32 PM CDT
Astronomical Twilight 4:04 AM CDT 10:16 PM CDT
Moon 8:02 PM CDT (8/10) 5:56 AM CDT (8/10)
Length of Visible Light 15h 22m
Length of Day
14h 17m
Full, 100% of the Moon is Illuminated
Aug 10
Full
Aug 10
Full
Aug 17
Last Quarter
Aug 25
New
Sep 2
First Quarter

Hourly Weather History & Observations

Time (CDT) Temp. Heat Index Dew Point Humidity Pressure Visibility Wind Dir Wind Speed Gust Speed Precip Events Conditions
12:56 AM 63.0 °F - 60.1 °F 90% 30.08 in 10.0 mi Calm Calm - N/A   Clear
1:56 AM 62.1 °F - 59.0 °F 90% 30.08 in 10.0 mi North - - N/A   Clear
2:56 AM 61.0 °F - 60.1 °F 97% 30.08 in 9.0 mi NNE 3.5 mph - N/A   Clear
3:56 AM 63.0 °F - 59.0 °F 87% 30.09 in 10.0 mi North - - N/A   Clear
4:56 AM 62.1 °F - 57.0 °F 84% 30.09 in 10.0 mi North - - N/A   Clear
5:56 AM 57.9 °F - 55.9 °F 93% 30.09 in 10.0 mi NE 3.5 mph - N/A   Clear
6:56 AM 57.0 °F - 55.0 °F 93% 30.09 in 10.0 mi Calm Calm - N/A   Clear
7:56 AM 63.0 °F - 57.0 °F 81% 30.11 in 10.0 mi ESE 3.5 mph - N/A   Clear
8:56 AM 68.0 °F - 57.0 °F 68% 30.10 in 10.0 mi Variable 3.5 mph - N/A   Clear
9:56 AM 72.0 °F - 57.0 °F 59% 30.09 in 10.0 mi South 4.6 mph - N/A   Clear
10:56 AM 75.9 °F - 57.9 °F 54% 30.08 in 10.0 mi Calm Calm - N/A   Clear
11:56 AM 75.9 °F - 55.9 °F 50% 30.07 in 10.0 mi SSE 5.8 mph - N/A   Clear
12:56 PM 79.0 °F - 57.0 °F 47% 30.06 in 10.0 mi South 4.6 mph - N/A   Clear
1:56 PM 79.0 °F - 53.1 °F 40% 30.04 in 10.0 mi North - - N/A   Clear
2:56 PM 81.0 °F - 45.0 °F 28% 30.02 in 10.0 mi SSE 9.2 mph - N/A   Clear
3:56 PM 82.0 °F - 46.9 °F 29% 30.01 in 10.0 mi Variable 4.6 mph - N/A   Clear
4:56 PM 81.0 °F - 52.0 °F 36% 30.00 in 10.0 mi ESE 5.8 mph - N/A   Clear
5:56 PM 80.1 °F 79.9 °F 53.1 °F 39% 30.00 in 10.0 mi SSW 9.2 mph - N/A   Clear
6:56 PM 78.1 °F - 51.1 °F 39% 30.00 in 10.0 mi SW 5.8 mph - N/A   Clear
7:56 PM 73.9 °F - 55.0 °F 52% 29.99 in 10.0 mi South 3.5 mph - N/A   Clear
8:56 PM 69.1 °F - 55.9 °F 63% 29.99 in 10.0 mi Calm Calm - N/A   Clear
9:56 PM 66.9 °F - 57.9 °F 73% 29.99 in 10.0 mi Calm Calm - N/A   Clear
10:56 PM 64.0 °F - 57.0 °F 78% 29.98 in 10.0 mi Calm Calm - N/A   Clear
11:56 PM 64.0 °F - 57.9 °F 80% 29.98 in 10.0 mi Calm Calm - N/A   Clear